GW4755 Weather Reports


Display with metric or nautical units.
time (UTC)temp
F
wind
direction
speed
MPH
gust
MPH
rain 1hr
in
rain 24hr
in
rain mn
in
humidity
%
barometer
mb
20260507175503 55 3 0.0 0.0 0.00 0.00 0.00 91 1006.1
20260507174003 55 3 0.0 0.0 0.00 0.00 0.00 92 1006.4
20260507171004 53 270 0.0 0.0 0.00 0.00 0.00 93 1006.4
20260507165504 53 9 0.0 0.0 0.00 0.00 0.00 93 1006.1
20260507164004 52 16 0.0 0.0 0.00 0.00 0.00 93 1006.4
20260507162504 52 21 0.0 0.0 0.00 0.00 0.00 93 1006.4
20260507161004 51 349 0.0 0.0 0.00 0.00 0.00 93 1006.4
20260507155503 51 352 0.0 0.0 0.00 0.00 0.00 93 1006.1
20260507154004 51 7 0.0 0.0 0.00 0.00 0.00 93 1006.1
20260507152503 51 345 0.0 0.0 0.00 0.00 0.00 93 1006.1
20260507151004 51 9 0.0 0.0 0.00 0.00 0.00 93 1006.1
20260507145504 50 337 0.0 0.0 0.00 0.00 0.00 93 1006.1
20260507141004 50 348 0.0 0.0 0.00 0.00 0.00 93 1005.8
20260507135504 50 346 0.0 0.0 0.00 0.00 0.00 93 1005.8
20260507134004 50 6 0.0 0.0 0.00 0.00 0.00 93 1005.4
20260507132503 50 340 0.0 0.0 0.00 0.00 0.00 93 1005.4
20260507131005 50 358 0.0 0.0 0.00 0.00 0.00 93 1005.4
20260507130004 50 359 0.0 0.0 0.00 0.00 0.00 93 1005.4
20260507124504 50 359 0.0 0.0 0.00 0.00 0.00 93 1005.4
20260507123004 50 339 0.0 0.0 0.00 0.00 0.00 93 1005.1
20260507121503 50 26 0.0 0.0 0.00 0.00 0.00 93 1005.1
20260507114504 50 317 0.0 0.0 0.00 0.00 0.00 92 1005.4
20260507113004 50 4 0.0 0.0 0.00 0.00 0.00 92 1005.4
20260507111504 50 20 0.0 0.0 0.00 0.00 0.00 92 1005.4
20260507110004 50 351 0.0 0.0 0.00 0.00 0.00 92 1005.4
20260507103004 50 344 0.0 0.0 0.00 0.00 0.00 92 1005.4
20260507101503 50 38 0.0 0.0 0.00 0.00 0.00 92 1005.4
20260507100005 50 352 0.0 0.0 0.00 0.00 0.00 92 1005.8
20260507094503 50 357 0.0 0.0 0.00 0.00 0.00 92 1005.8
20260507093005 50 319 0.0 0.0 0.00 0.00 0.00 92 1005.8
20260507091504 50 2 0.0 0.0 0.00 0.00 0.00 91 1005.8
20260507090005 50 321 0.0 0.0 0.00 0.00 0.00 91 1005.8
20260507085003 50 339 0.0 0.0 0.00 0.00 0.00 91 1005.8
20260507080504 50 2 0.0 0.0 0.00 0.00 0.00 90 1005.8
20260507074504 50 8 0.0 0.0 0.00 0.00 0.00 90 1005.8
20260507073004 50 348 0.0 0.0 0.00 0.00 0.00 90 1005.8
20260507070009 51 351 0.0 0.0 0.00 0.00 0.00 89 1005.4
20260507063004 51 5 0.0 0.0 0.00 0.00 0.00 88 1005.4
20260507061504 52 347 0.0 0.0 0.00 0.00 0.00 88 1005.4
20260507060004 52 356 0.0 0.0 0.00 0.00 0.00 88 1005.4
20260507054503 52 17 0.0 0.0 0.00 0.00 0.00 88 1005.1
20260507051504 53 356 0.0 0.0 0.00 0.00 0.00 87 1005.1
20260507044503 54 342 0.0 0.0 0.00 0.00 0.00 85 1005.1
20260507043004 54 337 0.0 0.0 0.00 0.00 0.00 85 1005.1
20260507041503 55 336 0.0 0.0 0.00 0.00 0.00 84 1005.1
20260507040004 55 308 0.0 0.0 0.00 0.00 0.00 84 1005.1
20260507034505 56 267 0.0 0.0 0.00 0.00 0.00 84 1005.1
20260507033003 57 319 0.0 0.0 0.00 0.00 0.00 84 1005.1
20260507031504 57 288 0.0 0.0 0.00 0.00 0.00 84 1004.7
20260507030004 57 316 0.0 0.0 0.00 0.00 0.00 84 1004.7
20260507024504 58 281 0.0 0.0 0.00 0.00 0.00 85 1004.7
20260507023003 58 339 0.0 0.0 0.00 0.00 0.00 84 1004.4
20260507020004 58 327 0.0 0.0 0.00 0.00 0.00 82 1004.7
20260507014504 59 312 0.0 0.0 0.00 0.00 0.00 80 1005.1
20260507013004 59 313 0.0 0.0 0.00 0.00 0.00 78 1005.1
20260507011503 59 318 0.0 0.0 0.00 0.00 0.00 81 1005.1
20260507010003 60 309 0.0 0.0 0.00 0.00 0.00 80 1005.1
20260507004503 60 20 0.0 4.0 0.00 0.00 0.00 77 1005.1
20260507003004 60 51 0.0 0.0 0.00 0.00 0.00 79 1005.1
20260507001504 60 34 0.0 0.0 0.00 0.00 0.00 79 1005.1
20260507000004 60 52 0.0 1.0 0.00 0.00 0.00 79 1005.1
20260506234503 60 54 1.0 2.0 0.00 0.00 0.00 78 1005.4
20260506231503 62 72 3.0 5.0 0.00 0.00 0.00 74 1005.4
20260506230003 63 12 0.0 4.0 0.00 0.00 0.00 73 1005.8
20260506224503 63 65 2.0 4.0 0.00 0.00 0.00 73 1005.8
20260506221504 65 337 0.0 2.0 0.00 0.00 0.00 73 1006.1
20260506220004 65 41 3.0 5.0 0.00 0.00 0.00 71 1006.1
20260506214503 65 16 0.0 2.0 0.00 0.00 0.00 72 1006.1
20260506213004 65 69 2.0 3.0 0.00 0.00 0.00 73 1006.4
20260506204503 66 332 0.0 1.0 0.00 0.00 0.00 71 1006.4
20260506203004 66 63 1.0 4.0 0.00 0.00 0.00 71 1006.4
20260506201503 68 358 6.0 6.0 0.00 0.00 0.00 71 1006.4
20260506200004 68 43 0.0 3.0 0.00 0.00 0.00 72 1006.4
20260506194504 67 76 2.0 2.0 0.00 0.00 0.00 74 1006.8
20260506191505 65 52 0.0 3.0 0.00 0.00 0.00 75 1007.1
20260506190005 65 20 0.0 1.0 0.00 0.00 0.00 75 1007.1
20260506181503 64 330 0.0 0.0 0.00 0.00 0.00 77 1007.1